ONEWEB-0260, 48978

Orbit data source: Space-Track

ONEWEB-0260, 48978 is a payload satellite owned by One Web (NAA) (UK) in LEO that was launched on Thu, 01 Jul 2021 UTC via a SOYUZ-2-1B launch vehicle from the Vostochny Cosmodrome (VOSTO). Payload-class satellites include a variety of spacecraft equipped with specific instruments for various scientific and technological missions. These include communications satellites like Starlink; space stations such as the ISS; scientific satellites like the Hubble; Earth observation satellites from companies like Planet Labs, Umbra, and HawkEye 360; GPS; miniature CubeSats for education and research; and military/defense satellites.

Loading next visibility...
Identifier
48978, 2021-060M
Orbit
LEO
Country
Flag of UKUK
Related business
Manufacturer
One Web
Mission
Operational Commercial Communications
Bus & Motor
ARROW, Unknown motor
Mass
148 kg wet, ~140 kg dry
Launch date (UTC)
2021-07-01 (4 years ago)
Launch vehicle
SOYUZ-2-1B
Launch site
Vostochny Cosmodrome (VOSTO)
Object type
Payload
Rocket body
Debris
Shape & HBR
Trap Box + 2 Pan, 6.7 m
Radar Cross Section
3.464 m², Large (>1 m²)

Expand to show TLE details & history
Last TLE update: 10 hours ago

TLE from 10 hours ago
0 ONEWEB-0260
1 48978U 21060M   25349.78464755  .00000011  00000-0 -50286-5 0  9993
2 48978  87.9035 265.3124 0001993  83.8477 276.2881 13.16594967215476
Epoch: 2025-12-15T18:49Z
TLE epoch observation values (Epoch: 2025-12-15T18:49:53.548Z)
Latitude
-0.00001°
Longitude
-101.83896°
Altitude
1,200.486 km
Speed
7.254 km/s
True Right ascension
17h 41m 14s
True Declination
0° 00' 00"
Sunlit
Object was in daylight at epoch
Visualization orbit readout
Latitude
Unknown
Longitude
Unknown
Altitude
Unknown
Speed
Unknown
Apparent Right ascension
Unknown
Apparent Declination
Unknown
Sunlit
N/A
Visualization observer readout
Local Sidereal Time
03:07:58
Azimuth
Unknown
Elevation
Unknown
Doppler factor
Unknown
Orbital elements
Apogee altitude
1,196.374 km
Perigee altitude
1,193.355 km
Semi-major axis
7,573.001 km
Eccentricity
0.0002
Inclination
87.9035°
RAAN
265.3124°
Arg. of periapsis
83.8477°
True anomaly
276.2654°
Mean anomaly
276.2881°
Eccentric anomaly
276.27675°
Mean motion
3.29337 °/min
Orbital period
109.31 mins
BSTAR
-0.0000050286
Loading maneuver chart data...
Computing Atmospheric mass density...
Loading historical data...
Loading historical data...
Loading historical data...
Loading historical data...
Loading historical data...
Loading historical data...
Loading historical data...

Documentation

Showing up to 5 results
|